Regional Weather Roundup
Issued by NWS Goodland, KS

Current Version | Previous Version | Text Only | Print | Product List | Glossary On
Versions: 1 2 3 4 5 6 7 8 9 10 11 12 13 14 15 16 17 18 19 20 21 22 23 24 25 26 27 28 29 30 31 32 33 34 35 36 37 38 39 40 41 42 43 44 45 46 47 48 49 50
000 ASUS43 KGLD 050508 RWRGLD GOODLAND FORECAST AREA HOURLY WEATHER ROUNDUP NATIONAL WEATHER SERVICE GOODLAND KS 1000 PM MST THU MAR 04 2021 ...OFFICIAL OBSERVATIONS... CITY SKY/WX TMP DP RH WIND PRES REMARKS GOODLAND KS LGT RAIN 43 41 93 NE16 30.09R HILL CITY KS LGT RAIN 49 46 90 NE5 30.07R IMPERIAL NEB MOCLDY 46 27 47 E10 30.13R MCCOOK NEB CLOUDY 49 33 54 W3 30.11R AKRON CO PTCLDY 38 34 85 NW13 30.16R BURLINGTON CO LGT RAIN 43 39 86 NE15 30.09R LIMON CO MIX PCPN 36 33 89 N18 30.15R $$ ...UNOFFICIAL OBSERVATIONS... CITY SKY/WX TMP DP RH WIND PRES REMARKS COLBY KS CLOUDY 43 43 100 E16 30.10R NORTON KS FAIR 50 41 71 CALM 30.12R SHARON SPRINGS N/A 44 41 89 NE13G21 N/A YUMA CO CLOUDY 37 34 87 NW14 30.14R $$

USA.gov is the U.S. government's official web portal to all federal, state and local government web resources and services.